Time,TemperatureF,DewpointF,PressureIn,WindDirection,WindDirectionDegrees,WindSpeedMPH,WindSpeedGustMPH,Humidity,HourlyPrecipIn,Conditions,Clouds,dailyrainin,SoftwareType,DateUTC
2013-08-13 00:01:00,61.0,55.8,30.11,NNE,31,0.0,0.0,83,0.00,,,0.01,meteohub,2013-08-13 05:01:00,
2013-08-13 00:06:00,61.0,55.8,30.11,NNE,31,0.0,2.0,83,0.00,,,0.00,meteohub,2013-08-13 05:06:00,
2013-08-13 00:11:00,60.4,55.2,30.11,NNE,31,0.0,2.0,83,0.00,,,0.00,meteohub,2013-08-13 05:11:00,
2013-08-13 00:16:00,60.4,55.6,30.11,NNE,31,0.0,0.0,84,0.00,,,0.00,meteohub,2013-08-13 05:16:00,
2013-08-13 00:21:00,60.3,55.4,30.12,NNE,30,0.0,0.0,84,0.00,,,0.00,meteohub,2013-08-13 05:21:00,
2013-08-13 00:26:00,59.9,55.0,30.12,NNE,31,0.0,0.0,84,0.00,,,0.00,meteohub,2013-08-13 05:26:00,
2013-08-13 00:31:00,59.5,55.0,30.12,NNE,31,0.0,0.0,85,0.00,,,0.00,meteohub,2013-08-13 05:31:00,
2013-08-13 00:36:00,59.5,55.0,30.12,NNE,31,0.0,0.0,85,0.00,,,0.00,meteohub,2013-08-13 05:36:00,
2013-08-13 00:41:00,59.5,55.4,30.12,NNE,30,0.0,0.0,86,0.00,,,0.00,meteohub,2013-08-13 05:41:00,
2013-08-13 00:46:00,59.5,55.4,30.12,NNE,31,0.0,0.0,86,0.00,,,0.00,meteohub,2013-08-13 05:46:00,
2013-08-13 00:51:00,59.7,55.6,30.12,NNE,31,0.0,0.0,86,0.00,,,0.00,meteohub,2013-08-13 05:51:00,
2013-08-13 00:56:00,59.7,55.6,30.12,NNE,30,0.0,0.0,86,0.00,,,0.00,meteohub,2013-08-13 05:56:00,
2013-08-13 01:01:00,59.7,55.6,30.12,NNE,30,0.0,0.0,86,0.00,,,0.00,meteohub,2013-08-13 06:01:00,
2013-08-13 01:06:00,59.9,55.8,30.12,NNE,31,2.0,2.0,86,0.00,,,0.00,meteohub,2013-08-13 06:06:00,
2013-08-13 01:11:00,60.4,56.3,30.12,NNE,31,3.0,3.0,86,0.00,,,0.00,meteohub,2013-08-13 06:11:00,
2013-08-13 01:16:00,61.2,56.3,30.13,NNE,30,0.0,3.0,84,0.00,,,0.00,meteohub,2013-08-13 06:16:00,
2013-08-13 01:21:00,61.9,56.7,30.13,NNE,31,0.0,3.0,83,0.00,,,0.00,meteohub,2013-08-13 06:21:00,
2013-08-13 01:26:00,62.1,56.5,30.13,NNE,31,0.0,3.0,82,0.00,,,0.00,meteohub,2013-08-13 06:26:00,
2013-08-13 01:31:00,62.2,56.7,30.13,NNE,31,0.0,3.0,82,0.00,,,0.00,meteohub,2013-08-13 06:31:00,
2013-08-13 01:36:00,62.2,56.7,30.14,NNE,31,0.0,2.0,82,0.00,,,0.00,meteohub,2013-08-13 06:36:00,
2013-08-13 01:41:00,62.1,56.5,30.14,NNE,30,0.0,2.0,82,0.00,,,0.00,meteohub,2013-08-13 06:41:00,
2013-08-13 01:46:00,61.9,56.3,30.14,NNE,31,0.0,2.0,82,0.00,,,0.00,meteohub,2013-08-13 06:46:00,
2013-08-13 01:51:00,61.7,56.1,30.14,NNE,31,0.0,3.0,82,0.00,,,0.00,meteohub,2013-08-13 06:51:00,
2013-08-13 01:56:00,61.5,55.9,30.14,NNE,30,0.0,3.0,82,0.00,,,0.00,meteohub,2013-08-13 06:56:00,
2013-08-13 02:02:00,61.5,55.9,30.14,NNE,31,0.0,3.0,82,0.00,,,0.00,meteohub,2013-08-13 07:02:00,
2013-08-13 02:07:00,61.3,56.1,30.14,NNE,31,0.0,2.0,83,0.00,,,0.00,meteohub,2013-08-13 07:07:00,
2013-08-13 02:12:00,61.2,55.9,30.14,NNE,30,0.0,2.0,83,0.00,,,0.00,meteohub,2013-08-13 07:12:00,
2013-08-13 02:17:00,61.2,55.9,30.15,NNE,31,0.0,1.0,83,0.00,,,0.00,meteohub,2013-08-13 07:17:00,
2013-08-13 02:22:00,61.0,55.8,30.15,NNE,31,0.0,1.0,83,0.00,,,0.00,meteohub,2013-08-13 07:22:00,
2013-08-13 02:27:00,60.8,55.9,30.15,NNE,31,0.0,1.0,84,0.00,,,0.00,meteohub,2013-08-13 07:27:00,
2013-08-13 02:32:00,60.8,55.9,30.15,NNE,30,0.0,1.0,84,0.00,,,0.00,meteohub,2013-08-13 07:32:00,
2013-08-13 02:37:00,60.6,55.8,30.15,NNE,31,0.0,1.0,84,0.00,,,0.00,meteohub,2013-08-13 07:37:00,
2013-08-13 02:42:00,60.6,56.1,30.15,NNE,31,0.0,3.0,85,0.00,,,0.00,meteohub,2013-08-13 07:42:00,
2013-08-13 02:47:00,60.6,56.1,30.15,NNE,30,0.0,3.0,85,0.00,,,0.00,meteohub,2013-08-13 07:47:00,
2013-08-13 02:52:00,60.4,55.9,30.15,NNE,30,0.0,3.0,85,0.00,,,0.00,meteohub,2013-08-13 07:52:00,
2013-08-13 02:57:00,60.3,55.8,30.15,NNE,31,0.0,2.0,85,0.00,,,0.00,meteohub,2013-08-13 07:57:00,
2013-08-13 03:02:00,60.3,56.1,30.15,NNE,31,0.0,2.0,86,0.00,,,0.00,meteohub,2013-08-13 08:02:00,
2013-08-13 03:07:00,60.1,55.9,30.15,NNE,30,0.0,1.0,86,0.00,,,0.00,meteohub,2013-08-13 08:07:00,
2013-08-13 03:12:00,60.1,55.9,30.15,NNE,31,0.0,1.0,86,0.00,,,0.00,meteohub,2013-08-13 08:12:00,
2013-08-13 03:17:00,60.3,56.1,30.16,NNE,31,0.0,2.0,86,0.00,,,0.00,meteohub,2013-08-13 08:17:00,
2013-08-13 03:22:00,60.3,56.1,30.16,NNE,30,0.0,3.0,86,0.00,,,0.00,meteohub,2013-08-13 08:22:00,
2013-08-13 03:27:00,60.1,55.9,30.16,NNE,30,0.0,3.0,86,0.00,,,0.00,meteohub,2013-08-13 08:27:00,
2013-08-13 03:32:00,60.1,55.9,30.16,NNE,31,0.0,2.0,86,0.00,,,0.00,meteohub,2013-08-13 08:32:00,
2013-08-13 03:37:00,60.1,55.9,30.16,NNE,31,0.0,2.0,86,0.00,,,0.00,meteohub,2013-08-13 08:37:00,
2013-08-13 03:42:00,59.7,55.6,30.16,NNE,31,1.0,1.0,86,0.00,,,0.00,meteohub,2013-08-13 08:42:00,
2013-08-13 03:47:00,59.7,55.6,30.16,NNE,31,0.0,1.0,86,0.00,,,0.00,meteohub,2013-08-13 08:47:00,
2013-08-13 03:52:00,59.5,55.4,30.16,NNE,31,0.0,2.0,86,0.00,,,0.00,meteohub,2013-08-13 08:52:00,
2013-08-13 03:57:00,59.4,55.2,30.16,NNE,30,0.0,2.0,86,0.00,,,0.00,meteohub,2013-08-13 08:57:00,
2013-08-13 04:02:00,59.0,55.2,30.16,NNE,30,0.0,2.0,87,0.00,,,0.00,meteohub,2013-08-13 09:02:00,
2013-08-13 04:07:00,59.0,55.2,30.16,NNE,31,0.0,0.0,87,0.00,,,0.00,meteohub,2013-08-13 09:07:00,
2013-08-13 04:12:00,59.0,55.2,30.16,NNE,31,0.0,2.0,87,0.00,,,0.00,meteohub,2013-08-13 09:12:00,
2013-08-13 04:17:00,59.0,55.2,30.16,NNE,31,0.0,2.0,87,0.00,,,0.00,meteohub,2013-08-13 09:17:00,
2013-08-13 04:22:00,59.0,55.2,30.16,NNE,30,0.0,4.0,87,0.00,,,0.00,meteohub,2013-08-13 09:22:00,
2013-08-13 04:27:00,59.0,55.2,30.16,NNE,31,0.0,4.0,87,0.00,,,0.00,meteohub,2013-08-13 09:27:00,
2013-08-13 04:32:00,59.0,55.2,30.16,NNE,31,0.0,4.0,87,0.00,,,0.00,meteohub,2013-08-13 09:32:00,
2013-08-13 04:37:00,59.0,54.9,30.16,NNE,30,0.0,3.0,86,0.00,,,0.00,meteohub,2013-08-13 09:37:00,
2013-08-13 04:42:00,59.0,54.9,30.17,NNE,30,0.0,3.0,86,0.00,,,0.00,meteohub,2013-08-13 09:42:00,
2013-08-13 04:47:00,58.8,54.7,30.17,NNE,31,0.0,1.0,86,0.00,,,0.00,meteohub,2013-08-13 09:47:00,
2013-08-13 04:52:00,58.6,54.5,30.17,NNE,31,3.0,3.0,86,0.00,,,0.00,meteohub,2013-08-13 09:52:00,
2013-08-13 04:57:00,58.5,54.3,30.17,NNE,30,0.0,3.0,86,0.00,,,0.00,meteohub,2013-08-13 09:57:00,
2013-08-13 05:02:00,58.5,54.3,30.17,NNE,31,0.0,3.0,86,0.00,,,0.00,meteohub,2013-08-13 10:02:00,
2013-08-13 05:07:00,58.5,54.3,30.17,NNE,31,0.0,3.0,86,0.00,,,0.00,meteohub,2013-08-13 10:07:00,
2013-08-13 05:12:00,58.5,54.3,30.17,NNE,30,0.0,1.0,86,0.00,,,0.00,meteohub,2013-08-13 10:12:00,
2013-08-13 05:17:00,58.5,54.3,30.17,NNE,30,0.0,1.0,86,0.00,,,0.00,meteohub,2013-08-13 10:17:00,
2013-08-13 05:22:00,58.3,54.1,30.17,NNE,31,0.0,1.0,86,0.00,,,0.00,meteohub,2013-08-13 10:22:00,
2013-08-13 05:27:00,57.7,53.2,30.17,NNE,31,0.0,0.0,85,0.00,,,0.00,meteohub,2013-08-13 10:27:00,
2013-08-13 05:32:00,57.4,53.2,30.16,NNE,31,0.0,0.0,86,0.00,,,0.00,meteohub,2013-08-13 10:32:00,
2013-08-13 05:37:00,57.0,52.9,30.17,NNE,30,0.0,0.0,86,0.00,,,0.00,meteohub,2013-08-13 10:37:00,
2013-08-13 05:42:00,56.7,52.5,30.17,NNE,31,0.0,0.0,86,0.00,,,0.00,meteohub,2013-08-13 10:42:00,
2013-08-13 05:47:00,56.1,52.3,30.17,NNE,30,0.0,0.0,87,0.00,,,0.00,meteohub,2013-08-13 10:47:00,
2013-08-13 05:52:00,56.1,52.3,30.17,NNE,31,0.0,0.0,87,0.00,,,0.00,meteohub,2013-08-13 10:52:00,
2013-08-13 05:57:00,55.9,52.2,30.17,NNE,31,0.0,0.0,87,0.00,,,0.00,meteohub,2013-08-13 10:57:00,
2013-08-13 06:02:00,55.8,52.3,30.17,NNE,31,0.0,0.0,88,0.00,,,0.00,meteohub,2013-08-13 11:02:00,
2013-08-13 06:07:00,55.8,52.3,30.17,NNE,31,0.0,0.0,88,0.00,,,0.00,meteohub,2013-08-13 11:07:00,
2013-08-13 06:12:00,55.8,52.3,30.17,NNE,30,0.0,0.0,88,0.00,,,0.00,meteohub,2013-08-13 11:12:00,
2013-08-13 06:17:00,55.6,52.2,30.17,NNE,31,0.0,0.0,88,0.00,,,0.00,meteohub,2013-08-13 11:17:00,
2013-08-13 06:22:00,55.2,51.8,30.18,NNE,31,0.0,0.0,88,0.00,,,0.00,meteohub,2013-08-13 11:22:00,
2013-08-13 06:27:00,55.2,52.0,30.18,NNE,31,0.0,0.0,89,0.00,,,0.00,meteohub,2013-08-13 11:27:00,
2013-08-13 06:32:00,55.2,52.0,30.18,NNE,30,0.0,0.0,89,0.00,,,0.00,meteohub,2013-08-13 11:32:00,
2013-08-13 06:37:00,55.0,51.8,30.18,NNE,31,0.0,0.0,89,0.00,,,0.00,meteohub,2013-08-13 11:37:00,
2013-08-13 06:42:00,54.9,51.6,30.19,NNE,31,0.0,0.0,89,0.00,,,0.00,meteohub,2013-08-13 11:42:00,
2013-08-13 06:47:00,55.0,51.8,30.19,NNE,30,0.0,0.0,89,0.00,,,0.00,meteohub,2013-08-13 11:47:00,
2013-08-13 06:52:00,55.4,52.2,30.19,NNE,31,0.0,0.0,89,0.00,,,0.00,meteohub,2013-08-13 11:52:00,
2013-08-13 06:57:00,55.6,52.3,30.19,NNE,31,0.0,0.0,89,0.00,,,0.00,meteohub,2013-08-13 11:57:00,
2013-08-13 07:02:00,55.9,52.7,30.19,NNE,31,0.0,0.0,89,0.00,,,0.00,meteohub,2013-08-13 12:02:00,
2013-08-13 07:07:00,56.1,52.9,30.19,NNE,31,0.0,0.0,89,0.00,,,0.00,meteohub,2013-08-13 12:07:00,
2013-08-13 07:12:00,56.5,53.2,30.19,NNE,31,0.0,0.0,89,0.00,,,0.00,meteohub,2013-08-13 12:12:00,
2013-08-13 07:17:00,56.8,53.6,30.19,NNE,30,0.0,1.0,89,0.00,,,0.00,meteohub,2013-08-13 12:17:00,
2013-08-13 07:22:00,57.0,53.8,30.19,NNE,31,0.0,1.0,89,0.00,,,0.00,meteohub,2013-08-13 12:22:00,
2013-08-13 07:27:00,57.4,54.1,30.20,NNE,31,0.0,2.0,89,0.00,,,0.00,meteohub,2013-08-13 12:27:00,
2013-08-13 07:32:00,57.7,54.5,30.21,NNE,30,0.0,3.0,89,0.00,,,0.00,meteohub,2013-08-13 12:32:00,
2013-08-13 07:37:00,58.3,55.0,30.21,NNE,31,0.0,3.0,89,0.00,,,0.00,meteohub,2013-08-13 12:37:00,
2013-08-13 07:42:00,58.8,55.2,30.21,NNE,31,0.0,3.0,88,0.00,,,0.00,meteohub,2013-08-13 12:42:00,
2013-08-13 07:47:00,59.0,55.2,30.21,NNE,31,2.0,3.0,87,0.00,,,0.00,meteohub,2013-08-13 12:47:00,
2013-08-13 07:52:00,59.5,55.6,30.21,ENE,59,0.0,4.0,87,0.00,,,0.00,meteohub,2013-08-13 12:52:00,
2013-08-13 07:57:00,59.9,55.8,30.21,ENE,59,0.0,4.0,86,0.00,,,0.00,meteohub,2013-08-13 12:57:00,
2013-08-13 08:02:00,60.3,56.1,30.22,ENE,63,0.0,4.0,86,0.00,,,0.00,meteohub,2013-08-13 13:02:00,
2013-08-13 08:07:00,60.4,55.6,30.22,ENE,63,0.0,4.0,84,0.00,,,0.00,meteohub,2013-08-13 13:07:00,
2013-08-13 08:12:00,60.8,55.9,30.22,ENE,68,1.0,5.0,84,0.00,,,0.00,meteohub,2013-08-13 13:12:00,
2013-08-13 08:17:00,61.2,55.9,30.22,ENE,68,0.0,5.0,83,0.00,,,0.00,meteohub,2013-08-13 13:17:00,
2013-08-13 08:22:00,61.5,55.9,30.22,ENE,69,0.0,5.0,82,0.00,,,0.00,meteohub,2013-08-13 13:22:00,
2013-08-13 08:27:00,61.9,55.9,30.22,ENE,69,3.0,4.0,81,0.00,,,0.00,meteohub,2013-08-13 13:27:00,
2013-08-13 08:32:00,62.1,55.8,30.22,ENE,70,0.0,4.0,80,0.00,,,0.00,meteohub,2013-08-13 13:32:00,
2013-08-13 08:37:00,62.2,55.9,30.22,ENE,69,0.0,4.0,80,0.00,,,0.00,meteohub,2013-08-13 13:37:00,
2013-08-13 08:42:00,63.0,55.9,30.22,ENE,70,0.0,4.0,78,0.00,,,0.00,meteohub,2013-08-13 13:42:00,
2013-08-13 08:47:00,63.1,56.1,30.22,ENE,70,5.0,5.0,78,0.00,,,0.00,meteohub,2013-08-13 13:47:00,
2013-08-13 08:52:00,63.3,55.9,30.22,ENE,71,0.0,5.0,77,0.00,,,0.00,meteohub,2013-08-13 13:52:00,
2013-08-13 08:57:00,63.5,56.1,30.23,ENE,71,0.0,5.0,77,0.00,,,0.00,meteohub,2013-08-13 13:57:00,
2013-08-13 09:02:00,63.7,56.7,30.23,ENE,71,0.0,5.0,78,0.00,,,0.00,meteohub,2013-08-13 14:02:00,
2013-08-13 09:07:00,64.2,56.5,30.23,ENE,71,1.0,4.0,76,0.00,,,0.00,meteohub,2013-08-13 14:07:00,
2013-08-13 09:12:00,64.9,56.5,30.23,ENE,71,0.0,4.0,74,0.00,,,0.00,meteohub,2013-08-13 14:12:00,
2013-08-13 09:17:00,64.9,56.1,30.23,ENE,71,0.0,4.0,73,0.00,,,0.00,meteohub,2013-08-13 14:17:00,
2013-08-13 09:22:00,65.1,56.3,30.24,ENE,71,0.0,5.0,73,0.00,,,0.00,meteohub,2013-08-13 14:22:00,
2013-08-13 09:27:00,65.3,56.1,30.24,ENE,71,0.0,5.0,72,0.00,,,0.00,meteohub,2013-08-13 14:27:00,
2013-08-13 09:32:00,65.5,56.3,30.24,ENE,71,3.0,5.0,72,0.00,,,0.00,meteohub,2013-08-13 14:32:00,
2013-08-13 09:37:00,65.7,55.6,30.24,ENE,71,0.0,4.0,70,0.00,,,0.00,meteohub,2013-08-13 14:37:00,
2013-08-13 09:42:00,66.0,55.6,30.24,ENE,71,0.0,4.0,69,0.00,,,0.00,meteohub,2013-08-13 14:42:00,
2013-08-13 09:47:00,66.4,55.0,30.24,ENE,72,2.0,4.0,67,0.00,,,0.00,meteohub,2013-08-13 14:47:00,
2013-08-13 09:52:00,66.6,54.9,30.24,ENE,72,0.0,3.0,66,0.00,,,0.00,meteohub,2013-08-13 14:52:00,
2013-08-13 09:57:00,66.4,55.0,30.25,ENE,72,0.0,3.0,67,0.00,,,0.00,meteohub,2013-08-13 14:57:00,
2013-08-13 10:02:00,67.1,55.8,30.24,ENE,72,0.0,3.0,67,0.00,,,0.00,meteohub,2013-08-13 15:02:00,
2013-08-13 10:07:00,67.6,55.4,30.25,ENE,71,0.0,3.0,65,0.00,,,0.00,meteohub,2013-08-13 15:07:00,
2013-08-13 10:12:00,67.6,54.7,30.25,ENE,71,0.0,2.0,63,0.00,,,0.00,meteohub,2013-08-13 15:12:00,
2013-08-13 10:17:00,68.2,55.6,30.25,ENE,72,0.0,1.0,64,0.00,,,0.00,meteohub,2013-08-13 15:17:00,
2013-08-13 10:22:00,68.4,54.9,30.25,ENE,72,0.0,4.0,62,0.00,,,0.00,meteohub,2013-08-13 15:22:00,
2013-08-13 10:27:00,68.4,52.5,30.25,ENE,66,0.0,4.0,57,0.00,,,0.00,meteohub,2013-08-13 15:27:00,
2013-08-13 10:32:00,68.2,51.8,30.25,NE,53,2.0,5.0,56,0.00,,,0.00,meteohub,2013-08-13 15:32:00,
2013-08-13 10:37:00,68.2,51.8,30.24,NE,42,2.0,6.0,56,0.00,,,0.00,meteohub,2013-08-13 15:37:00,
2013-08-13 10:42:00,68.4,50.5,30.24,NE,44,1.0,7.0,53,0.00,,,0.00,meteohub,2013-08-13 15:42:00,
2013-08-13 10:47:00,68.5,50.7,30.24,ENE,59,0.0,7.0,53,0.00,,,0.00,meteohub,2013-08-13 15:47:00,
2013-08-13 10:52:00,68.5,50.7,30.24,ENE,71,1.0,7.0,53,0.00,,,0.00,meteohub,2013-08-13 15:52:00,
2013-08-13 10:57:00,68.7,49.8,30.24,NE,34,3.0,10.0,51,0.00,,,0.00,meteohub,2013-08-13 15:57:00,
2013-08-13 11:02:00,68.5,51.3,30.24,NE,44,4.0,12.0,54,0.00,,,0.00,meteohub,2013-08-13 16:02:00,
2013-08-13 11:07:00,68.5,49.1,30.25,ENE,74,0.0,12.0,50,0.00,,,0.00,meteohub,2013-08-13 16:07:00,
2013-08-13 11:12:00,68.4,49.5,30.24,NE,52,5.0,15.0,51,0.00,,,0.00,meteohub,2013-08-13 16:12:00,
2013-08-13 11:17:00,68.5,50.7,30.24,NE,44,3.0,15.0,53,0.00,,,0.00,meteohub,2013-08-13 16:17:00,
2013-08-13 11:22:00,69.1,50.7,30.24,ENE,58,5.0,11.0,52,0.00,,,0.00,meteohub,2013-08-13 16:22:00,
2013-08-13 11:27:00,69.3,51.4,30.25,NE,41,6.0,11.0,53,0.00,,,0.00,meteohub,2013-08-13 16:27:00,
2013-08-13 11:32:00,69.3,50.9,30.25,ENE,57,5.0,11.0,52,0.00,,,0.00,meteohub,2013-08-13 16:32:00,
2013-08-13 11:37:00,69.3,49.3,30.24,NE,56,0.0,11.0,49,0.00,,,0.00,meteohub,2013-08-13 16:37:00,
2013-08-13 11:42:00,69.1,50.2,30.24,ENE,57,6.0,10.0,51,0.00,,,0.00,meteohub,2013-08-13 16:42:00,
2013-08-13 11:47:00,69.1,49.6,30.25,East,90,0.0,12.0,50,0.00,,,0.00,meteohub,2013-08-13 16:47:00,
2013-08-13 11:52:00,68.9,49.5,30.25,NNE,29,4.0,12.0,50,0.00,,,0.00,meteohub,2013-08-13 16:52:00,
2013-08-13 11:57:00,69.1,50.2,30.24,North,11,11.0,13.0,51,0.00,,,0.00,meteohub,2013-08-13 16:57:00,
2013-08-13 12:02:00,69.4,50.5,30.25,NNE,21,6.0,13.0,51,0.00,,,0.00,meteohub,2013-08-13 17:02:00,
2013-08-13 12:07:00,69.6,50.7,30.25,NE,48,6.0,12.0,51,0.00,,,0.00,meteohub,2013-08-13 17:07:00,
2013-08-13 12:12:00,69.8,50.4,30.25,NNE,13,1.0,12.0,50,0.00,,,0.00,meteohub,2013-08-13 17:12:00,
2013-08-13 12:17:00,70.0,51.1,30.25,ENE,65,8.0,14.0,51,0.00,,,0.00,meteohub,2013-08-13 17:17:00,
2013-08-13 12:22:00,70.2,50.2,30.25,NE,45,4.0,14.0,49,0.00,,,0.00,meteohub,2013-08-13 17:22:00,
2013-08-13 12:27:00,70.0,50.5,30.25,NE,51,6.0,14.0,50,0.00,,,0.00,meteohub,2013-08-13 17:27:00,
2013-08-13 12:32:00,69.6,50.7,30.25,ENE,63,0.0,10.0,51,0.00,,,0.00,meteohub,2013-08-13 17:32:00,
2013-08-13 12:37:00,70.0,51.1,30.25,NNE,24,4.0,10.0,51,0.00,,,0.00,meteohub,2013-08-13 17:37:00,
2013-08-13 12:42:00,70.2,50.7,30.25,NNE,24,4.0,9.0,50,0.00,,,0.00,meteohub,2013-08-13 17:42:00,
2013-08-13 12:48:00,70.5,50.9,30.25,ENE,78,11.0,11.0,50,0.00,,,0.00,meteohub,2013-08-13 17:48:00,
2013-08-13 12:53:00,70.5,49.8,30.25,NE,47,7.0,13.0,48,0.00,,,0.00,meteohub,2013-08-13 17:53:00,
2013-08-13 12:58:00,70.9,50.2,30.25,NE,48,3.0,13.0,48,0.00,,,0.00,meteohub,2013-08-13 17:58:00,
2013-08-13 13:03:00,70.9,49.6,30.25,NE,38,3.0,13.0,47,0.00,,,0.00,meteohub,2013-08-13 18:03:00,
2013-08-13 13:08:00,71.1,50.4,30.24,East,90,0.0,12.0,48,0.00,,,0.00,meteohub,2013-08-13 18:08:00,
2013-08-13 13:13:00,71.4,49.6,30.25,East,90,2.0,7.0,46,0.00,,,0.00,meteohub,2013-08-13 18:13:00,
2013-08-13 13:18:00,70.9,49.6,30.24,NNW,341,3.0,9.0,47,0.00,,,0.00,meteohub,2013-08-13 18:18:00,
2013-08-13 13:23:00,70.3,50.4,30.25,NNE,24,0.0,11.0,49,0.00,,,0.00,meteohub,2013-08-13 18:23:00,
2013-08-13 13:28:00,70.0,50.5,30.24,NE,40,4.0,11.0,50,0.00,,,0.00,meteohub,2013-08-13 18:28:00,
2013-08-13 13:33:00,70.5,49.3,30.24,NNE,18,4.0,11.0,47,0.00,,,0.00,meteohub,2013-08-13 18:33:00,
2013-08-13 13:38:00,71.1,49.8,30.24,North,5,4.0,11.0,47,0.00,,,0.00,meteohub,2013-08-13 18:38:00,
2013-08-13 13:43:00,70.9,48.6,30.24,NNE,22,4.0,11.0,45,0.00,,,0.00,meteohub,2013-08-13 18:43:00,
2013-08-13 13:48:00,70.9,49.6,30.24,NNE,32,5.0,11.0,47,0.00,,,0.00,meteohub,2013-08-13 18:48:00,
2013-08-13 13:53:00,70.9,50.7,30.24,ENE,61,0.0,12.0,49,0.00,,,0.00,meteohub,2013-08-13 18:53:00,
2013-08-13 13:58:00,71.2,50.5,30.24,NE,34,6.0,12.0,48,0.00,,,0.00,meteohub,2013-08-13 18:58:00,
2013-08-13 14:03:00,71.1,49.8,30.24,NNE,28,3.0,12.0,47,0.00,,,0.00,meteohub,2013-08-13 19:03:00,
2013-08-13 14:08:00,71.2,50.0,30.24,ENE,67,9.0,10.0,47,0.00,,,0.00,meteohub,2013-08-13 19:08:00,
2013-08-13 14:13:00,71.2,50.0,30.23,NE,54,0.0,10.0,47,0.00,,,0.00,meteohub,2013-08-13 19:13:00,
2013-08-13 14:18:00,71.8,49.3,30.23,East,82,0.0,13.0,45,0.00,,,0.00,meteohub,2013-08-13 19:18:00,
2013-08-13 14:23:00,72.3,50.4,30.24,NNE,19,12.0,13.0,46,0.00,,,0.00,meteohub,2013-08-13 19:23:00,
2013-08-13 14:28:00,71.6,47.8,30.23,North,11,0.0,13.0,43,0.00,,,0.00,meteohub,2013-08-13 19:28:00,
2013-08-13 14:33:00,71.2,49.5,30.23,NNE,14,3.0,13.0,46,0.00,,,0.00,meteohub,2013-08-13 19:33:00,
2013-08-13 14:38:00,71.4,50.2,30.23,North,0,0.0,13.0,47,0.00,,,0.00,meteohub,2013-08-13 19:38:00,
2013-08-13 14:43:00,72.1,49.1,30.23,East,94,0.0,9.0,44,0.00,,,0.00,meteohub,2013-08-13 19:43:00,
2013-08-13 14:48:00,72.5,48.7,30.23,ESE,112,0.0,9.0,43,0.00,,,0.00,meteohub,2013-08-13 19:48:00,
2013-08-13 14:53:00,72.7,50.2,30.23,ENE,65,1.0,9.0,45,0.00,,,0.00,meteohub,2013-08-13 19:53:00,
2013-08-13 14:58:00,72.9,50.9,30.23,NW,325,3.0,7.0,46,0.00,,,0.00,meteohub,2013-08-13 19:58:00,
2013-08-13 15:03:00,72.5,49.3,30.23,NNW,346,1.0,9.0,44,0.00,,,0.00,meteohub,2013-08-13 20:03:00,
2013-08-13 15:08:00,72.5,49.3,30.22,NNE,13,3.0,9.0,44,0.00,,,0.00,meteohub,2013-08-13 20:08:00,
2013-08-13 15:13:00,72.7,50.7,30.22,NE,36,3.0,10.0,46,0.00,,,0.00,meteohub,2013-08-13 20:13:00,
2013-08-13 15:18:00,72.9,50.4,30.22,NE,53,0.0,10.0,45,0.00,,,0.00,meteohub,2013-08-13 20:18:00,
2013-08-13 15:23:00,73.0,51.1,30.22,NE,54,1.0,10.0,46,0.00,,,0.00,meteohub,2013-08-13 20:23:00,
2013-08-13 15:28:00,73.4,50.7,30.22,North,0,1.0,10.0,45,0.00,,,0.00,meteohub,2013-08-13 20:28:00,
2013-08-13 15:33:00,73.6,49.6,30.22,ENE,57,1.0,15.0,43,0.00,,,0.00,meteohub,2013-08-13 20:33:00,
2013-08-13 15:38:00,73.6,50.4,30.22,NNE,29,4.0,15.0,44,0.00,,,0.00,meteohub,2013-08-13 20:38:00,
2013-08-13 15:43:00,73.4,50.7,30.22,NE,46,0.0,15.0,45,0.00,,,0.00,meteohub,2013-08-13 20:43:00,
2013-08-13 15:48:00,73.4,51.4,30.22,ENE,71,1.0,10.0,46,0.00,,,0.00,meteohub,2013-08-13 20:48:00,
2013-08-13 15:53:00,74.1,50.9,30.22,ESE,109,0.0,10.0,44,0.00,,,0.00,meteohub,2013-08-13 20:53:00,
2013-08-13 15:58:00,74.5,50.5,30.22,East,97,0.0,7.0,43,0.00,,,0.00,meteohub,2013-08-13 20:58:00,
2013-08-13 16:03:00,74.5,50.5,30.22,ENE,65,6.0,6.0,43,0.00,,,0.00,meteohub,2013-08-13 21:03:00,
2013-08-13 16:08:00,73.8,49.3,30.22,NE,55,6.0,11.0,42,0.00,,,0.00,meteohub,2013-08-13 21:08:00,
2013-08-13 16:13:00,73.6,50.9,30.22,NE,44,2.0,11.0,45,0.00,,,0.00,meteohub,2013-08-13 21:13:00,
2013-08-13 16:18:00,73.6,49.6,30.22,NE,51,0.0,11.0,43,0.00,,,0.00,meteohub,2013-08-13 21:18:00,
2013-08-13 16:23:00,73.8,49.8,30.21,NE,55,4.0,11.0,43,0.00,,,0.00,meteohub,2013-08-13 21:23:00,
2013-08-13 16:28:00,73.6,49.6,30.21,NE,42,4.0,9.0,43,0.00,,,0.00,meteohub,2013-08-13 21:28:00,
2013-08-13 16:33:00,73.4,49.5,30.21,NE,42,0.0,9.0,43,0.00,,,0.00,meteohub,2013-08-13 21:33:00,
2013-08-13 16:38:00,73.8,51.1,30.21,NNE,31,2.0,9.0,45,0.00,,,0.00,meteohub,2013-08-13 21:38:00,
2013-08-13 16:43:00,73.8,50.5,30.21,ENE,63,4.0,7.0,44,0.00,,,0.00,meteohub,2013-08-13 21:43:00,
2013-08-13 16:48:00,73.8,49.8,30.21,NE,53,3.0,8.0,43,0.00,,,0.00,meteohub,2013-08-13 21:48:00,
2013-08-13 16:53:00,72.9,49.1,30.21,NE,42,1.0,11.0,43,0.00,,,0.00,meteohub,2013-08-13 21:53:00,
2013-08-13 16:58:00,72.3,49.8,30.21,NNE,27,6.0,11.0,45,0.00,,,0.00,meteohub,2013-08-13 21:58:00,
2013-08-13 17:03:00,72.3,51.4,30.21,NNE,33,2.0,11.0,48,0.00,,,0.00,meteohub,2013-08-13 22:03:00,
2013-08-13 17:08:00,72.9,50.9,30.20,NE,40,3.0,6.0,46,0.00,,,0.00,meteohub,2013-08-13 22:08:00,
2013-08-13 17:13:00,72.9,50.4,30.20,NNE,19,2.0,10.0,45,0.00,,,0.00,meteohub,2013-08-13 22:13:00,
2013-08-13 17:18:00,73.0,51.1,30.20,NE,55,0.0,10.0,46,0.00,,,0.00,meteohub,2013-08-13 22:18:00,
2013-08-13 17:23:00,73.2,50.5,30.20,NE,52,3.0,7.0,45,0.00,,,0.00,meteohub,2013-08-13 22:23:00,
2013-08-13 17:28:00,73.2,51.3,30.20,NNE,19,0.0,7.0,46,0.00,,,0.00,meteohub,2013-08-13 22:28:00,
2013-08-13 17:33:00,73.2,50.5,30.20,NE,37,0.0,6.0,45,0.00,,,0.00,meteohub,2013-08-13 22:33:00,
2013-08-13 17:38:00,73.0,50.4,30.19,NNE,18,6.0,6.0,45,0.00,,,0.00,meteohub,2013-08-13 22:38:00,
2013-08-13 17:43:00,73.0,50.4,30.19,NNE,17,5.0,9.0,45,0.00,,,0.00,meteohub,2013-08-13 22:43:00,
2013-08-13 17:48:00,72.9,50.4,30.19,ENE,71,4.0,9.0,45,0.00,,,0.00,meteohub,2013-08-13 22:48:00,
2013-08-13 17:53:00,73.0,50.4,30.19,NE,41,0.0,9.0,45,0.00,,,0.00,meteohub,2013-08-13 22:53:00,
2013-08-13 17:58:00,72.9,51.4,30.19,NNE,29,0.0,7.0,47,0.00,,,0.00,meteohub,2013-08-13 22:58:00,
2013-08-13 18:03:00,72.9,50.9,30.19,NNE,24,1.0,6.0,46,0.00,,,0.00,meteohub,2013-08-13 23:03:00,
2013-08-13 18:09:00,73.0,50.4,30.19,NNE,20,0.0,6.0,45,0.00,,,0.00,meteohub,2013-08-13 23:09:00,
2013-08-13 18:14:00,73.0,51.1,30.19,ENE,65,5.0,10.0,46,0.00,,,0.00,meteohub,2013-08-13 23:14:00,
2013-08-13 18:19:00,73.2,50.5,30.19,NE,49,3.0,10.0,45,0.00,,,0.00,meteohub,2013-08-13 23:19:00,
2013-08-13 18:24:00,73.2,50.0,30.19,NE,47,1.0,10.0,44,0.00,,,0.00,meteohub,2013-08-13 23:24:00,
2013-08-13 18:29:00,73.2,50.5,30.19,NE,46,2.0,8.0,45,0.00,,,0.00,meteohub,2013-08-13 23:29:00,
2013-08-13 18:34:00,73.0,51.1,30.19,NE,45,0.0,5.0,46,0.00,,,0.00,meteohub,2013-08-13 23:34:00,
2013-08-13 18:39:00,73.0,51.6,30.19,NE,45,3.0,5.0,47,0.00,,,0.00,meteohub,2013-08-13 23:39:00,
2013-08-13 18:44:00,72.9,50.9,30.19,NE,44,3.0,5.0,46,0.00,,,0.00,meteohub,2013-08-13 23:44:00,
2013-08-13 18:49:00,72.9,50.9,30.19,NE,44,2.0,5.0,46,0.00,,,0.00,meteohub,2013-08-13 23:49:00,
2013-08-13 18:54:00,72.9,50.9,30.18,ENE,67,4.0,5.0,46,0.00,,,0.00,meteohub,2013-08-13 23:54:00,
2013-08-13 18:59:00,72.9,52.0,30.19,ENE,68,0.0,6.0,48,0.00,,,0.00,meteohub,2013-08-13 23:59:00,
2013-08-13 19:04:00,73.0,50.4,30.19,ENE,69,0.0,6.0,45,0.00,,,0.00,meteohub,2013-08-14 00:04:00,
2013-08-13 19:09:00,73.0,51.1,30.19,ENE,68,0.0,6.0,46,0.00,,,0.00,meteohub,2013-08-14 00:09:00,
2013-08-13 19:14:00,73.0,50.4,30.19,ENE,68,0.0,4.0,45,0.00,,,0.00,meteohub,2013-08-14 00:14:00,
2013-08-13 19:19:00,72.9,50.9,30.19,ENE,68,0.0,4.0,46,0.00,,,0.00,meteohub,2013-08-14 00:19:00,
2013-08-13 19:24:00,72.9,50.9,30.19,ENE,69,0.0,2.0,46,0.00,,,0.00,meteohub,2013-08-14 00:24:00,
2013-08-13 19:29:00,72.7,50.7,30.19,ENE,69,0.0,2.0,46,0.00,,,0.00,meteohub,2013-08-14 00:29:00,
2013-08-13 19:34:00,72.0,50.0,30.19,ENE,69,0.0,2.0,46,0.00,,,0.00,meteohub,2013-08-14 00:34:00,
2013-08-13 19:39:00,72.0,51.8,30.19,ENE,69,0.0,2.0,49,0.00,,,0.00,meteohub,2013-08-14 00:39:00,
2013-08-13 19:44:00,72.1,51.4,30.19,ENE,68,0.0,2.0,48,0.00,,,0.00,meteohub,2013-08-14 00:44:00,
2013-08-13 19:49:00,72.3,50.9,30.19,ENE,69,0.0,1.0,47,0.00,,,0.00,meteohub,2013-08-14 00:49:00,
2013-08-13 19:54:00,72.1,51.4,30.19,ENE,69,0.0,0.0,48,0.00,,,0.00,meteohub,2013-08-14 00:54:00,
2013-08-13 19:59:00,71.2,51.6,30.19,ENE,69,0.0,0.0,50,0.00,,,0.00,meteohub,2013-08-14 00:59:00,
2013-08-13 20:04:00,69.6,51.8,30.19,ENE,68,0.0,0.0,53,0.00,,,0.00,meteohub,2013-08-14 01:04:00,
2013-08-13 20:09:00,68.2,51.4,30.19,ENE,69,0.0,0.0,55,0.00,,,0.00,meteohub,2013-08-14 01:09:00,
2013-08-13 20:14:00,66.7,52.0,30.19,ENE,69,0.0,0.0,59,0.00,,,0.00,meteohub,2013-08-14 01:14:00,
2013-08-13 20:19:00,65.7,52.3,30.19,ENE,68,0.0,0.0,62,0.00,,,0.00,meteohub,2013-08-14 01:19:00,
2013-08-13 20:24:00,64.9,52.5,30.19,ENE,69,0.0,0.0,64,0.00,,,0.00,meteohub,2013-08-14 01:24:00,
2013-08-13 20:29:00,64.0,52.5,30.19,ENE,69,0.0,0.0,66,0.00,,,0.00,meteohub,2013-08-14 01:29:00,
2013-08-13 20:34:00,63.1,52.3,30.19,ENE,68,0.0,0.0,68,0.00,,,0.00,meteohub,2013-08-14 01:34:00,
2013-08-13 20:39:00,62.8,52.9,30.19,ENE,69,0.0,0.0,70,0.00,,,0.00,meteohub,2013-08-14 01:39:00,
2013-08-13 20:44:00,62.4,52.5,30.19,ENE,69,0.0,0.0,70,0.00,,,0.00,meteohub,2013-08-14 01:44:00,
2013-08-13 20:49:00,61.9,52.7,30.19,ENE,69,0.0,0.0,72,0.00,,,0.00,meteohub,2013-08-14 01:49:00,
2013-08-13 20:54:00,61.2,52.5,30.19,ENE,69,0.0,0.0,73,0.00,,,0.00,meteohub,2013-08-14 01:54:00,
2013-08-13 20:59:00,60.6,52.7,30.20,ENE,68,0.0,0.0,75,0.00,,,0.00,meteohub,2013-08-14 01:59:00,
2013-08-13 21:04:00,60.3,52.7,30.20,ENE,69,0.0,0.0,76,0.00,,,0.00,meteohub,2013-08-14 02:04:00,
2013-08-13 21:09:00,60.1,53.2,30.20,ENE,69,0.0,0.0,78,0.00,,,0.00,meteohub,2013-08-14 02:09:00,
2013-08-13 21:14:00,59.5,52.7,30.21,ENE,69,0.0,0.0,78,0.00,,,0.00,meteohub,2013-08-14 02:14:00,
2013-08-13 21:19:00,59.4,52.9,30.21,ENE,68,0.0,0.0,79,0.00,,,0.00,meteohub,2013-08-14 02:19:00,
2013-08-13 21:24:00,59.0,52.9,30.21,ENE,69,0.0,0.0,80,0.00,,,0.00,meteohub,2013-08-14 02:24:00,
2013-08-13 21:29:00,59.0,53.2,30.21,ENE,69,0.0,0.0,81,0.00,,,0.00,meteohub,2013-08-14 02:29:00,
2013-08-13 21:34:00,58.6,53.2,30.21,ENE,68,0.0,0.0,82,0.00,,,0.00,meteohub,2013-08-14 02:34:00,
2013-08-13 21:39:00,58.5,53.2,30.21,ENE,69,0.0,0.0,83,0.00,,,0.00,meteohub,2013-08-14 02:39:00,
2013-08-13 21:44:00,57.7,52.3,30.21,ENE,68,0.0,0.0,82,0.00,,,0.00,meteohub,2013-08-14 02:44:00,
2013-08-13 21:49:00,57.0,52.0,30.21,ENE,68,0.0,0.0,83,0.00,,,0.00,meteohub,2013-08-14 02:49:00,
2013-08-13 21:54:00,56.5,51.6,30.21,ENE,69,0.0,0.0,84,0.00,,,0.00,meteohub,2013-08-14 02:54:00,
2013-08-13 21:59:00,56.3,51.8,30.22,ENE,69,0.0,0.0,85,0.00,,,0.00,meteohub,2013-08-14 02:59:00,
2013-08-13 22:04:00,56.3,52.2,30.22,ENE,68,0.0,0.0,86,0.00,,,0.00,meteohub,2013-08-14 03:04:00,
2013-08-13 22:09:00,55.9,51.8,30.22,ENE,69,0.0,0.0,86,0.00,,,0.00,meteohub,2013-08-14 03:09:00,
2013-08-13 22:14:00,55.9,51.8,30.22,ENE,69,0.0,0.0,86,0.00,,,0.00,meteohub,2013-08-14 03:14:00,
2013-08-13 22:19:00,55.6,51.4,30.22,ENE,68,0.0,0.0,86,0.00,,,0.00,meteohub,2013-08-14 03:19:00,
2013-08-13 22:24:00,55.2,51.4,30.22,ENE,68,0.0,0.0,87,0.00,,,0.00,meteohub,2013-08-14 03:24:00,
2013-08-13 22:29:00,55.2,51.4,30.22,ENE,69,0.0,0.0,87,0.00,,,0.00,meteohub,2013-08-14 03:29:00,
2013-08-13 22:34:00,55.2,51.4,30.22,ENE,69,0.0,0.0,87,0.00,,,0.00,meteohub,2013-08-14 03:34:00,
2013-08-13 22:39:00,54.7,50.9,30.22,ENE,69,0.0,0.0,87,0.00,,,0.00,meteohub,2013-08-14 03:39:00,
2013-08-13 22:44:00,54.7,50.9,30.22,ENE,68,0.0,0.0,87,0.00,,,0.00,meteohub,2013-08-14 03:44:00,
2013-08-13 22:49:00,54.3,50.9,30.22,ENE,69,0.0,0.0,88,0.00,,,0.00,meteohub,2013-08-14 03:49:00,
2013-08-13 22:54:00,54.1,50.7,30.22,ENE,68,0.0,0.0,88,0.00,,,0.00,meteohub,2013-08-14 03:54:00,
2013-08-13 22:59:00,54.0,50.5,30.22,ENE,68,0.0,0.0,88,0.00,,,0.00,meteohub,2013-08-14 03:59:00,
2013-08-13 23:01:00,54.0,50.5,30.22,ENE,69,0.0,0.0,88,0.00,,,0.00,meteohub,2013-08-14 04:01:00,
2013-08-13 23:06:00,53.6,50.2,30.22,ENE,69,0.0,0.0,88,0.00,,,0.00,meteohub,2013-08-14 04:06:00,
2013-08-13 23:11:00,53.6,50.2,30.22,ENE,68,0.0,0.0,88,0.00,,,0.00,meteohub,2013-08-14 04:11:00,
2013-08-13 23:16:00,53.6,50.2,30.22,ENE,68,0.0,0.0,88,0.00,,,0.00,meteohub,2013-08-14 04:16:00,
2013-08-13 23:21:00,53.2,49.8,30.23,ENE,69,0.0,0.0,88,0.00,,,0.00,meteohub,2013-08-14 04:21:00,
2013-08-13 23:26:00,53.2,50.0,30.23,ENE,69,0.0,0.0,89,0.00,,,0.00,meteohub,2013-08-14 04:26:00,
2013-08-13 23:31:00,53.2,50.0,30.23,ENE,69,0.0,0.0,89,0.00,,,0.00,meteohub,2013-08-14 04:31:00,
2013-08-13 23:36:00,52.5,49.1,30.23,ENE,69,0.0,0.0,88,0.00,,,0.00,meteohub,2013-08-14 04:36:00,
2013-08-13 23:41:00,52.0,48.6,30.23,ENE,69,0.0,0.0,88,0.00,,,0.00,meteohub,2013-08-14 04:41:00,
2013-08-13 23:46:00,51.6,48.6,30.23,ENE,68,0.0,0.0,89,0.00,,,0.00,meteohub,2013-08-14 04:46:00,
2013-08-13 23:51:00,52.0,48.9,30.23,ENE,69,0.0,1.0,89,0.00,,,0.00,meteohub,2013-08-14 04:51:00,
2013-08-13 23:56:00,51.6,48.6,30.23,ENE,69,0.0,1.0,89,0.00,,,0.00,meteohub,2013-08-14 04:56:00,